[[{"header":{"parameterUnit":"m.s-1","parameterCategory":2,"la1":30.2991,"la2":30.254,"lo1":-89.0895,"lo2":-89.0444,"dy":0.0017,"dx":0.0017,"nx":28,"ny":28,"refTime":"2023-07-26T09:00:00:Z","depth":"0","parameterNumber":2,"parameterNumberName":"U-component_of_CURRENTS"},"data":[0,0,0,0,0,0,0,0,0,0,0,0,0,0,0,0,0,0,0,0,0,0,0,0,0,0,0,0,0,0,0,0,0,0,0,0,0,0,0,0,0,0,0,0,0,0,0,0,0,0,0,0,0,0,0,0,0,0,0.4332,0.4332,0,0.4328,0.4328,0.4327,0.4337,0.4338,0.4338,0.4339,0.4224,0.422,0.4216,0,0,0,0,0,0,0,0,0,0,0,0,0,0.4354,0.4353,0.4332,0.4332,0.4332,0.4328,0.4328,0.4327,0.4337,0.4338,0.4338,0.4339,0.4225,0.4221,0.4216,0,0,0,0,0,0,0,0,0,0,0,0,0,0.4342,0.4353,0.4331,0.434,0.4342,0.4329,0.4328,0.4327,0.4336,0.4338,0.4339,0.434,0.4227,0.4221,0.4215,0.4158,0,0,0.4198,0.4196,0,0,0,0,0,0,0,0,0.4343,0.434,0.4339,0.434,0.4341,0.4339,0.4294,0.4267,0.4336,0.4333,0.4339,0.434,0.4254,0.4247,0.4238,0.4152,0.4147,0.4198,0.4194,0.4192,0.419,0,0,0,0,0,0,0,0.4343,0.4341,0.4325,0.4339,0.4341,0.4348,0.4347,0.4289,0.4281,0.4333,0.4335,0.4343,0.4254,0.4243,0.4235,0.4146,0.4198,0.4193,0.4189,0.4187,0.4083,0.4083,0,0,0,0,0,0,0.4352,0.4341,0.4325,0.4325,0.4351,0.4347,0.4345,0.4334,0.4284,0.428,0.4342,0.4343,0.4252,0.4241,0.4231,0.4182,0.4192,0.4187,0.4183,0.4082,0.4083,0.4084,0,0,0,0,0,0,0.4352,0.435,0.4325,0.4339,0.4337,0.4346,0.4333,0.4334,0.4326,0.4293,0.4286,0.4336,0.4253,0.4239,0.4199,0.4177,0.4184,0.4179,0.4081,0.4082,0.4083,0.4069,0,0,0,0,0,0,0.4352,0.4349,0.434,0.4339,0.4337,0.431,0.4332,0.4333,0.4332,0.4334,0.4284,0.4275,0.4253,0.4208,0.4193,0.4169,0.4174,0.4081,0.4082,0.4083,0.4069,0.407,0.407,0,0,0,0,0,0.4353,0.4322,0.4339,0.4338,0.4324,0.4309,0.4307,0.4315,0.4331,0.4315,0.4305,0.4277,0.4206,0.4203,0.4186,0.4159,0.408,0.4082,0.4083,0.4069,0.4069,0.407,0,0,0,0,0,0,0.4308,0.432,0.4339,0.4309,0.4314,0.4313,0.4292,0.4311,0.4291,0.4291,0.4269,0.4258,0.4228,0.4198,0.4196,0.4141,0.4143,0.4141,0.4138,0.4139,0.4139,0.4156,0.417,0,0,0,0,0,0.4301,0.4285,0.4304,0.4276,0.4276,0.4288,0.4284,0.4295,0.4285,0.4278,0.4251,0.423,0.4218,0.4183,0.4166,0.4105,0.4159,0.4087,0.4087,0.4087,0.4095,0.419,0.42,0.4088,0.4088,0.4088,0,0,0.4276,0.4279,0.4271,0.4267,0.4264,0.4248,0.4285,0.427,0.4258,0.4263,0.4219,0.423,0.4212,0.4175,0.4156,0.4139,0.4149,0.4089,0.4089,0.4097,0.4193,0.4204,0.4214,0.4089,0.4089,0.4089,0,0,0.4208,0.4218,0.4187,0.4189,0.4197,0.4209,0.4208,0.4211,0.4212,0.4188,0.4211,0.422,0.4155,0.416,0.4152,0.414,0.4169,0.4125,0.4106,0.4198,0.4208,0.4218,0.4308,0.4326,0.41,0.41,0.41,0,0.4181,0.4146,0.4173,0.4145,0.4139,0.4189,0.4157,0.4163,0.4157,0.4162,0.417,0.4177,0.4156,0.4152,0.4156,0.4138,0.4203,0.4097,0.42,0.4211,0.4221,0.4311,0.4331,0.41,0.41,0.41,0.41,0,0.4097,0.4076,0.4049,0.404,0.4036,0.4013,0.4042,0.4044,0.4066,0.409,0.411,0.4125,0.4136,0.4131,0.4128,0.4179,0.4209,0.4211,0.4198,0.4232,0.4324,0.4345,0.4099,0.4099,0.41,0.41,0,0,0.4017,0.3998,0.3989,0.397,0.3983,0.3964,0.3959,0.3973,0.3988,0.4014,0.4035,0.405,0.4105,0.4104,0.4125,0.4188,0.4313,0.422,0.4225,0.4309,0.4532,0.4453,0.4469,0.434,0.4344,0.4346,0.457,0,0.3944,0.3871,0.3889,0.3826,0.3793,0.3845,0.3836,0.3866,0.3912,0.3947,0.4017,0.4046,0.4079,0.4099,0.4176,0.4289,0.4367,0.4253,0.4487,0.4494,0.442,0.449,0.4256,0.4427,0.4591,0.4595,0.4597,0,0.3856,0.3822,0.3743,0.3728,0.3719,0.3698,0.372,0.3728,0.3816,0.3862,0.3944,0.4013,0.4116,0.414,0.4374,0.4306,0.442,0.4509,0.452,0.4465,0.4454,0.442,0.446,0.4263,0.463,0.4627,0.4625,0,0.3764,0.3719,0.365,0.364,0.3634,0.3615,0.3628,0.3695,0.372,0.3825,0.3874,0.4018,0.4098,0.4276,0.4463,0.4435,0.4733,0.4713,0.4756,0.4752,0.4607,0.4583,0.448,0.4888,0.4887,0.4886,0.4886,0,0.3667,0.361,0.3601,0.3554,0.3503,0.3532,0.3514,0.3567,0.3654,0.3697,0.383,0.3908,0.4143,0.4327,0.4492,0.47,0.477,0.478,0.481,0.4594,0.4568,0.4431,0.4354,0.4895,0.4893,0.4891,0.489,0,0.355,0.3546,0.3471,0.3452,0.3447,0.3409,0.3438,0.3443,0.3549,0.3619,0.3654,0.3864,0.4102,0.4336,0.4635,0.4722,0.478,0.4978,0.4706,0.4697,0.4494,0.4425,0.4347,0.4242,0.5053,0.5052,0.5052,0,0.3474,0.3419,0.3383,0.3349,0.3329,0.3299,0.3285,0.3375,0.3401,0.359,0.3617,0.3858,0.4016,0.4422,0.463,0.4907,0.4763,0.4811,0.4693,0.446,0.4409,0.4286,0.4194,0.4516,0.4511,0.4507,0.4504,0,0.3329,0.3322,0.3271,0.3218,0.318,0.3145,0.3143,0.316,0.3284,0.3376,0.3531,0.3676,0.4036,0.4201,0.4527,0.4668,0.4505,0.4735,0.4567,0.4038,0.3827,0.3745,0.44,0.4469,0.4472,0.4475,0.4477,0.4478,0.3226,0.3177,0.3129,0.3065,0.303,0.2984,0.2941,0.2994,0.3049,0.3184,0.3389,0.3559,0.3766,0.4186,0.4301,0.424,0.4321,0.4114,0.408,0.4,0.3774,0.4345,0.4389,0.4391,0.4394,0.4396,0.4398,0,0.308,0.3043,0.2982,0.2896,0.2812,0.2847,0.2831,0.2806,0.2848,0.3043,0.3194,0.3335,0.3449,0.3612,0.367,0.3582,0.3501,0.347,0.3205,0.3176,0.3741,0.3583,0.336,0.336,0.336,0.336,0.3361,0.3361,0.2999,0.2896,0.2868,0.2697,0.2646,0.2531,0.2513,0.2539,0.2643,0.2745,0.2826,0.2971,0.3087,0.3095,0.2982,0.2946,0.2739,0.2635,0.2694,0.3011,0.3065,0.3118,0.2946,0.2593,0.2592,0.1985,0.1979,0.1975]},{"header":{"parameterUnit":"m.s-1","parameterCategory":2,"la1":30.2991,"la2":30.254,"lo1":-89.0895,"lo2":-89.0444,"dy":0.0017,"dx":0.0017,"nx":28,"ny":28,"refTime":"2023-07-26T09:00:00:Z","depth":"0","parameterNumber":3,"parameterNumberName":"V-component_of_CURRENTS"},"data":[0,0,0,0,0,0,0,0,0,0,0,0,0,0,0,0,0,0,0,0,0,0,0,0,0,0,0,0,0,0,0,0,0,0,0,0,0,0,0,0,0,0,0,0,0,0,0,0,0,0,0,0,0,0,0,0,0,0,0.08,0.08,0,0.0778,0.0778,0.0777,0.0748,0.0748,0.0748,0.0747,0.068,0.0678,0.0677,0,0,0,0,0,0,0,0,0,0,0,0,0,0.0802,0.0802,0.08,0.08,0.08,0.0778,0.0778,0.0777,0.0748,0.0748,0.0747,0.0747,0.068,0.0679,0.0677,0,0,0,0,0,0,0,0,0,0,0,0,0,0.0791,0.0802,0.08,0.0784,0.0782,0.0778,0.0778,0.0777,0.0748,0.0748,0.0747,0.0747,0.0681,0.0679,0.0677,0.0672,0,0,0.067,0.0669,0,0,0,0,0,0,0,0,0.0792,0.0791,0.0786,0.0785,0.0783,0.0767,0.0754,0.074,0.0748,0.0759,0.0747,0.0747,0.0706,0.0702,0.0697,0.0669,0.0666,0.0669,0.0668,0.0667,0.0666,0,0,0,0,0,0,0,0.0793,0.0792,0.0789,0.0786,0.0785,0.0773,0.0771,0.0751,0.0734,0.0758,0.0757,0.0757,0.0705,0.0699,0.0695,0.0665,0.067,0.0668,0.0666,0.0665,0.067,0.0671,0,0,0,0,0,0,0.08,0.0792,0.079,0.0789,0.0788,0.0774,0.0771,0.0771,0.0735,0.073,0.0758,0.0756,0.0703,0.0698,0.0693,0.0724,0.0667,0.0665,0.0664,0.0668,0.067,0.0672,0,0,0,0,0,0,0.08,0.08,0.0791,0.0792,0.079,0.0774,0.0775,0.0771,0.0766,0.0735,0.0728,0.0757,0.0703,0.0696,0.0701,0.072,0.0664,0.0662,0.0667,0.0669,0.0671,0.0762,0,0,0,0,0,0,0.08,0.08,0.0802,0.0792,0.079,0.0799,0.0775,0.0771,0.0768,0.0765,0.0732,0.0725,0.0702,0.0705,0.0699,0.0716,0.066,0.0665,0.0668,0.067,0.0757,0.0767,0.0776,0,0,0,0,0,0.0801,0.0811,0.0803,0.0802,0.0794,0.08,0.0798,0.0784,0.0769,0.0775,0.0765,0.0726,0.0717,0.0705,0.0697,0.0714,0.0663,0.0667,0.067,0.0753,0.0765,0.0775,0,0,0,0,0,0,0.0809,0.0808,0.0799,0.0807,0.0807,0.0796,0.0799,0.0788,0.0784,0.0782,0.0747,0.0741,0.0754,0.0723,0.071,0.0724,0.0682,0.0684,0.0748,0.0759,0.0768,0.0772,0.0658,0,0,0,0,0,0.0813,0.0822,0.0817,0.0823,0.0825,0.0811,0.081,0.0805,0.08,0.0797,0.0779,0.0763,0.0762,0.0753,0.0745,0.0749,0.0706,0.0754,0.0763,0.0771,0.077,0.0734,0.0739,0.0682,0.0682,0.0682,0,0,0.0818,0.0819,0.0823,0.0826,0.0822,0.0843,0.0809,0.0817,0.084,0.079,0.0814,0.0797,0.0773,0.0789,0.079,0.0764,0.0768,0.0775,0.0782,0.0777,0.0738,0.0743,0.0748,0.0685,0.0684,0.0684,0,0,0.0845,0.0833,0.0855,0.0861,0.0866,0.0864,0.087,0.0868,0.087,0.0891,0.0869,0.0867,0.0856,0.0848,0.0841,0.0892,0.0823,0.0885,0.0926,0.0892,0.0896,0.0899,0.0859,0.0857,0.0883,0.0883,0.0884,0,0.0852,0.0877,0.0862,0.0889,0.0902,0.0879,0.0913,0.0917,0.0921,0.0931,0.0912,0.0909,0.0886,0.0904,0.0925,0.0912,0.0876,0.0887,0.0903,0.0905,0.0906,0.0864,0.0861,0.0888,0.0888,0.0887,0.0887,0,0.0902,0.0921,0.0934,0.0964,0.0975,0.0998,0.1006,0.1019,0.1015,0.1018,0.1034,0.1008,0.1002,0.0996,0.0976,0.0982,0.0948,0.0924,0.0873,0.0917,0.087,0.0866,0.0895,0.0893,0.0892,0.0891,0,0,0.0925,0.0964,0.0969,0.0994,0.1018,0.1034,0.1073,0.1102,0.1131,0.1122,0.1151,0.1141,0.1113,0.1103,0.1071,0.1036,0.1018,0.0985,0.0981,0.0943,0.0933,0.0927,0.092,0.0991,0.0991,0.0991,0.0899,0,0.0971,0.1033,0.1042,0.1104,0.1136,0.1135,0.1175,0.1196,0.1206,0.1229,0.1195,0.121,0.1159,0.1156,0.1118,0.1055,0.1008,0.1044,0.0898,0.0894,0.088,0.0916,0.0905,0.0823,0.0894,0.0893,0.0892,0,0.1028,0.1057,0.1126,0.1176,0.119,0.1223,0.1272,0.1308,0.1331,0.1336,0.1332,0.1306,0.1281,0.1219,0.1115,0.1139,0.1041,0.0972,0.0966,0.0923,0.0879,0.0789,0.0811,0.0623,0.0884,0.0885,0.0885,0,0.1062,0.1122,0.1177,0.1195,0.1246,0.1273,0.1301,0.1339,0.1377,0.1401,0.1422,0.1384,0.1368,0.1255,0.1136,0.1118,0.1004,0.096,0.0854,0.0852,0.0794,0.0788,0.0613,0.0859,0.0859,0.086,0.086,0,0.112,0.1161,0.1194,0.1224,0.1282,0.1309,0.1377,0.14,0.1446,0.1503,0.1475,0.1503,0.1373,0.1304,0.1166,0.1018,0.1027,0.0866,0.0832,0.0828,0.0826,0.0621,0.0559,0.0856,0.0857,0.0858,0.0858,0,0.1156,0.1186,0.1241,0.1286,0.1303,0.1343,0.1413,0.1465,0.1504,0.1574,0.1585,0.1585,0.1514,0.1375,0.1203,0.1067,0.0832,0.0848,0.0856,0.0826,0.0553,0.05,0.0336,0.0306,0.0712,0.0711,0.071,0,0.1181,0.1214,0.1269,0.1294,0.1315,0.1374,0.1423,0.1484,0.1547,0.1633,0.1672,0.1643,0.1657,0.1426,0.1191,0.0962,0.081,0.076,0.0721,0.054,0.0455,0.0419,0.0404,0.0673,0.0672,0.0671,0.0671,0,0.1198,0.1218,0.1251,0.1304,0.1354,0.1428,0.1504,0.1565,0.1656,0.1733,0.1827,0.1852,0.1675,0.1485,0.1182,0.0994,0.067,0.0738,0.0541,0.041,0.0369,0.0324,0.0724,0.0665,0.0666,0.0666,0.0666,0.0667,0.1186,0.1206,0.1242,0.1293,0.1367,0.1468,0.1532,0.1639,0.1759,0.1902,0.194,0.2014,0.1709,0.1328,0.1078,0.0563,0.0626,0.0383,0.0332,0.0309,0.0288,0.0685,0.0602,0.0602,0.0602,0.0602,0.0602,0,0.1137,0.117,0.1222,0.1291,0.1372,0.1425,0.1573,0.1652,0.1799,0.1978,0.2089,0.197,0.16,0.1176,0.0526,0.02,0.011,0.0009,-0.0076,-0.007,0.0248,0.0251,0.0102,0.0102,0.0102,0.0102,0.0102,0.0103,0.1108,0.1125,0.1158,0.1255,0.1329,0.1438,0.1529,0.1676,0.1824,0.2001,0.2066,0.211,0.1731,0.066,-0.0094,-0.0248,-0.0423,-0.0453,-0.0517,-0.0362,-0.0333,-0.0305,-0.0321,-0.0589,-0.0589,-0.0812,-0.0815,-0.0817]}],[{"header":{"parameterUnit":"m.s-1","parameterCategory":2,"la1":30.2991,"la2":30.254,"lo1":-89.0895,"lo2":-89.0444,"dy":0.0017,"dx":0.0017,"nx":28,"ny":28,"refTime":"2023-07-26T09:00:00:Z","depth":"2","parameterNumber":2,"parameterNumberName":"U-component_of_CURRENTS"},"data":[0,0,0,0,0,0,0,0,0,0,0,0,0,0,0,0,0,0,0,0,0,0,0,0,0,0,0,0,0,0,0,0,0,0,0,0,0,0,0,0,0,0,0,0,0,0,0,0,0,0,0,0,0,0,0,0,0,0,0.3587,0.3587,0,0.3538,0.3537,0.3536,0.3498,0.3498,0.3498,0.3498,0.3649,0.3653,0.3657,0,0,0,0,0,0,0,0,0,0,0,0,0,0.36,0.36,0.3587,0.3587,0.3587,0.3538,0.3537,0.3535,0.3497,0.3498,0.3498,0.3498,0.3648,0.3652,0.3657,0,0,0,0,0,0,0,0,0,0,0,0,0,0.3571,0.36,0.3587,0.3567,0.3566,0.3538,0.3537,0.3535,0.3497,0.3498,0.3498,0.3499,0.3647,0.3652,0.3658,0.3684,0,0,0.3675,0.3677,0,0,0,0,0,0,0,0,0.3572,0.3569,0.357,0.3569,0.3567,0.3531,0.3597,0.3597,0.3497,0.3516,0.3498,0.3499,0.3633,0.3639,0.3616,0.3691,0.3698,0.3675,0.3679,0.3681,0.3683,0,0,0,0,0,0,0,0.3575,0.3571,0.356,0.357,0.3568,0.3546,0.3541,0.3595,0.3571,0.3514,0.3513,0.3519,0.3632,0.361,0.362,0.37,0.3675,0.368,0.3684,0.3686,0.3906,0.3909,0,0,0,0,0,0,0.3597,0.3573,0.3562,0.356,0.3579,0.3546,0.3541,0.3536,0.3566,0.3571,0.3519,0.3517,0.3601,0.3614,0.3626,0.3746,0.3681,0.3686,0.369,0.3904,0.3907,0.3909,0,0,0,0,0,0,0.3597,0.3596,0.3564,0.3572,0.3567,0.3546,0.354,0.3535,0.3566,0.3568,0.3576,0.3562,0.3601,0.3618,0.3739,0.3749,0.3689,0.3694,0.3901,0.3905,0.3908,0.3932,0,0,0,0,0,0,0.3597,0.3596,0.3627,0.3573,0.3568,0.3588,0.3541,0.3534,0.3569,0.3568,0.3608,0.3618,0.3603,0.3731,0.3745,0.3756,0.3698,0.3898,0.3903,0.3907,0.3928,0.3936,0.3943,0,0,0,0,0,0.3598,0.3626,0.3629,0.3629,0.3602,0.3591,0.3586,0.3567,0.3572,0.3595,0.3643,0.362,0.3768,0.374,0.3755,0.3767,0.3895,0.3901,0.3907,0.3925,0.3935,0.3943,0,0,0,0,0,0,0.3646,0.3624,0.3625,0.3647,0.3645,0.3588,0.3612,0.3608,0.3654,0.3677,0.3679,0.3694,0.3798,0.3801,0.3769,0.3846,0.3818,0.3827,0.3826,0.3836,0.3843,0.382,0.3703,0,0,0,0,0,0.3675,0.3689,0.3668,0.369,0.3697,0.3672,0.3678,0.3669,0.3688,0.3706,0.3736,0.3776,0.382,0.385,0.3895,0.3958,0.3981,0.397,0.3977,0.3983,0.3978,0.4054,0.4067,0.3928,0.3928,0.3928,0,0,0.3693,0.3692,0.3698,0.3704,0.3696,0.3701,0.3676,0.3701,0.3709,0.3725,0.3785,0.3831,0.3855,0.3911,0.3952,0.392,0.4039,0.399,0.3994,0.3986,0.4061,0.4074,0.4086,0.3932,0.3931,0.393,0,0,0.3718,0.3746,0.3759,0.3767,0.3785,0.3768,0.3796,0.3786,0.3796,0.386,0.3871,0.3942,0.3998,0.4002,0.4011,0.4101,0.4095,0.4108,0.4104,0.4179,0.419,0.42,0.4255,0.427,0.4087,0.4087,0.4087,0,0.3748,0.3752,0.3767,0.3781,0.3784,0.3808,0.3813,0.3827,0.3863,0.3877,0.3895,0.3988,0.4026,0.4068,0.4082,0.4113,0.4152,0.406,0.4186,0.4196,0.4206,0.426,0.4276,0.4088,0.4088,0.4088,0.4088,0,0.3762,0.3783,0.3796,0.3812,0.3828,0.3845,0.3859,0.39,0.3927,0.3926,0.4009,0.4064,0.4096,0.4121,0.4124,0.4198,0.4204,0.4204,0.4153,0.4221,0.4274,0.429,0.4091,0.409,0.409,0.4089,0,0,0.376,0.3794,0.3799,0.3798,0.3843,0.3838,0.3888,0.3903,0.3923,0.3989,0.4012,0.4092,0.4118,0.4134,0.4161,0.4219,0.433,0.4233,0.4236,0.427,0.4491,0.4139,0.4123,0.4355,0.4358,0.436,0.4502,0,0.3758,0.3772,0.3792,0.3802,0.3804,0.384,0.3863,0.3898,0.3939,0.3984,0.4049,0.4098,0.4121,0.4144,0.4213,0.4314,0.4373,0.429,0.4435,0.4439,0.4103,0.4129,0.3833,0.3901,0.4518,0.452,0.4522,0,0.375,0.3757,0.376,0.3765,0.3769,0.3779,0.3808,0.3836,0.3914,0.395,0.402,0.4075,0.4176,0.4189,0.4376,0.4325,0.4406,0.448,0.4487,0.4152,0.4114,0.3935,0.3907,0.4549,0.4547,0.4545,0.4543,0,0.3706,0.3724,0.3716,0.3723,0.3748,0.3746,0.3761,0.382,0.3842,0.3935,0.3972,0.4093,0.4159,0.4298,0.4438,0.442,0.4648,0.4638,0.4401,0.438,0.4144,0.4092,0.4768,0.4768,0.4767,0.4767,0.4766,0,0.3679,0.3669,0.3689,0.3683,0.3664,0.3697,0.3695,0.3737,0.3806,0.3841,0.3946,0.4006,0.4194,0.4332,0.446,0.4457,0.4666,0.4387,0.4378,0.414,0.4087,0.466,0.4646,0.4772,0.4771,0.477,0.4769,0,0.3627,0.3649,0.3632,0.3644,0.3642,0.3627,0.3642,0.3648,0.3726,0.3787,0.3817,0.3968,0.4116,0.429,0.4518,0.4419,0.4507,0.4468,0.4145,0.4085,0.4188,0.4174,0.417,0.4158,0.4149,0.414,0.4133,0,0.3597,0.3589,0.3592,0.3577,0.3576,0.3561,0.3552,0.3605,0.3622,0.3759,0.3786,0.3931,0.3949,0.4088,0.4044,0.4101,0.4373,0.3781,0.3626,0.4127,0.4122,0.4124,0.4123,0.3391,0.3378,0.3368,0.336,0,0.3535,0.3547,0.3539,0.3508,0.3487,0.3462,0.3457,0.3464,0.3544,0.3592,0.3671,0.3681,0.3688,0.3509,0.3465,0.3488,0.3716,0.3552,0.4248,0.3502,0.3379,0.3377,0.3407,0.327,0.3279,0.3285,0.329,0.3294,0.3487,0.3462,0.3454,0.341,0.3391,0.335,0.3289,0.3308,0.3312,0.325,0.3393,0.3243,0.318,0.286,0.2843,0.2835,0.3044,0.2946,0.2986,0.3036,0.2834,0.2689,0.2418,0.2422,0.2425,0.2428,0.2431,0,0.3368,0.3358,0.3341,0.3266,0.3192,0.3227,0.3198,0.3058,0.2998,0.2945,0.2854,0.2493,0.2269,0.2361,0.2114,0.1986,0.2097,0.2,0.2173,0.2257,0.2334,0.2108,0.1495,0.1493,0.1491,0.1489,0,0,0.3302,0.3227,0.321,0.3062,0.3022,0.2879,0.2841,0.2649,0.2545,0.2284,0.2136,0.2022,0.2138,0.1748,0.1692,0.1573,0.1933,0.1529,0.2268,0.2552,0.2627,0.2844,0.2579,0,0,0,0,0]},{"header":{"parameterUnit":"m.s-1","parameterCategory":2,"la1":30.2991,"la2":30.254,"lo1":-89.0895,"lo2":-89.0444,"dy":0.0017,"dx":0.0017,"nx":28,"ny":28,"refTime":"2023-07-26T09:00:00:Z","depth":"2","parameterNumber":3,"parameterNumberName":"V-component_of_CURRENTS"},"data":[0,0,0,0,0,0,0,0,0,0,0,0,0,0,0,0,0,0,0,0,0,0,0,0,0,0,0,0,0,0,0,0,0,0,0,0,0,0,0,0,0,0,0,0,0,0,0,0,0,0,0,0,0,0,0,0,0,0,0.0174,0.0174,0,0.0132,0.0131,0.013,0.0061,0.006,0.006,0.0059,-0.0116,-0.012,-0.0123,0,0,0,0,0,0,0,0,0,0,0,0,0,0.0154,0.0155,0.0174,0.0174,0.0174,0.0132,0.0131,0.013,0.0061,0.006,0.006,0.0059,-0.0114,-0.0119,-0.0124,0,0,0,0,0,0,0,0,0,0,0,0,0,0.0138,0.0155,0.0174,0.0139,0.0136,0.0133,0.0131,0.013,0.0062,0.006,0.0059,0.0058,-0.0113,-0.0119,-0.0124,-0.0139,0,0,-0.0143,-0.0145,0,0,0,0,0,0,0,0,0.0139,0.0138,0.0144,0.0141,0.0138,0.0106,0.0061,0.0035,0.0062,0.0084,0.0059,0.0058,-0.0049,-0.0061,-0.0072,-0.0147,-0.0154,-0.0143,-0.0147,-0.0149,-0.0151,0,0,0,0,0,0,0,0.014,0.0139,0.0152,0.0144,0.0141,0.0112,0.0108,0.0055,0.0017,0.0082,0.0078,0.0083,-0.0053,-0.0066,-0.0077,-0.0157,-0.0143,-0.0148,-0.0152,-0.0154,-0.0204,-0.0202,0,0,0,0,0,0,0.016,0.014,0.0153,0.0151,0.0142,0.0114,0.0109,0.0113,0.002,0.0008,0.0084,0.008,-0.0056,-0.007,-0.0084,-0.0071,-0.0149,-0.0155,-0.0158,-0.0207,-0.0204,-0.0201,0,0,0,0,0,0,0.016,0.0162,0.0155,0.0149,0.0147,0.0116,0.012,0.0112,0.0091,0.0025,0.0008,0.007,-0.0057,-0.0075,-0.0108,-0.008,-0.0157,-0.0163,-0.0209,-0.0206,-0.0203,-0.0068,0,0,0,0,0,0,0.0159,0.0162,0.0163,0.0151,0.0148,0.0156,0.0122,0.0113,0.0099,0.0093,0.0007,-0.0009,-0.0059,-0.0098,-0.0114,-0.0089,-0.0167,-0.0212,-0.0208,-0.0204,-0.0076,-0.0061,-0.0048,0,0,0,0,0,0.0159,0.017,0.0163,0.0165,0.0154,0.0157,0.0152,0.0123,0.01,0.0097,0.0057,-0.0007,-0.0083,-0.0102,-0.012,-0.0097,-0.0214,-0.0209,-0.0204,-0.0082,-0.0064,-0.0049,0,0,0,0,0,0,0.0163,0.0165,0.0156,0.0167,0.0165,0.0148,0.0144,0.0125,0.0091,0.008,0.0011,-0.0007,-0.002,-0.0074,-0.0092,-0.0094,-0.0155,-0.0154,-0.0056,-0.004,-0.0026,-0.0015,-0.0172,0,0,0,0,0,0.0168,0.0175,0.0174,0.0183,0.0183,0.0162,0.0157,0.0142,0.0118,0.0101,0.0053,0.0009,-0.0011,-0.0038,-0.0073,-0.0087,-0.0132,-0.0079,-0.0065,-0.0053,-0.0053,-0.0072,-0.006,-0.0185,-0.0185,-0.0185,0,0,0.0175,0.0177,0.0181,0.0185,0.0176,0.0194,0.0154,0.0154,0.0171,0.0087,0.0083,0.0048,-0.0002,-0.0001,-0.0013,-0.0047,-0.0038,-0.0047,-0.0036,-0.0043,-0.0066,-0.0054,-0.0043,-0.0182,-0.0182,-0.0183,0,0,0.0201,0.0192,0.0208,0.0213,0.0214,0.0209,0.0213,0.0201,0.0192,0.0193,0.0154,0.0145,0.0088,0.0079,0.0063,0.0128,0.0039,0.0112,0.0179,0.0162,0.0172,0.018,0.0149,0.0152,0.0114,0.0114,0.0114,0,0.0209,0.0232,0.0214,0.0236,0.0251,0.0223,0.0253,0.0249,0.0231,0.0239,0.0206,0.0181,0.0135,0.0158,0.0188,0.0158,0.0122,0.012,0.018,0.0186,0.0192,0.0158,0.016,0.0121,0.0121,0.012,0.0119,0,0.0251,0.027,0.0282,0.0305,0.0316,0.0336,0.0341,0.0348,0.0336,0.0335,0.0349,0.0307,0.0291,0.0288,0.0252,0.0283,0.0236,0.0203,0.0136,0.0213,0.0172,0.0172,0.0131,0.0129,0.0127,0.0125,0,0,0.0274,0.0306,0.0312,0.0337,0.0356,0.0373,0.0411,0.0442,0.0472,0.0455,0.0494,0.0478,0.0448,0.0429,0.0391,0.0378,0.0395,0.031,0.0305,0.0276,0.0341,0.0273,0.0266,0.0364,0.0365,0.0366,0.03,0,0.0315,0.0373,0.0379,0.044,0.0472,0.0474,0.0516,0.0539,0.0547,0.0575,0.0553,0.0563,0.0504,0.05,0.0485,0.042,0.0399,0.0414,0.0273,0.0269,0.0197,0.0266,0.0238,0.0173,0.0299,0.0299,0.0299,0,0.0358,0.0393,0.0458,0.0517,0.0531,0.0561,0.0623,0.0656,0.0691,0.0696,0.0704,0.0676,0.0674,0.0604,0.053,0.0537,0.0449,0.039,0.0385,0.027,0.0201,0.0115,0.0167,0.0298,0.0298,0.0298,0.0298,0,0.0389,0.0451,0.0507,0.0527,0.0585,0.0615,0.0644,0.0689,0.0735,0.0766,0.0797,0.0777,0.0768,0.0677,0.0565,0.0539,0.0472,0.0416,0.0271,0.0264,0.0186,0.0171,0.0354,0.0354,0.0354,0.0354,0.0354,0,0.0438,0.0481,0.0521,0.0554,0.0623,0.0646,0.0721,0.075,0.0808,0.0878,0.0851,0.0895,0.0782,0.0734,0.0608,0.0454,0.0501,0.0292,0.025,0.0233,0.0224,0.0282,0.0275,0.0351,0.0352,0.0353,0.0353,0,0.0467,0.0494,0.056,0.062,0.064,0.0686,0.0765,0.0825,0.0865,0.0955,0.097,0.0983,0.0925,0.0809,0.0669,0.0505,0.0368,0.0295,0.0278,0.0235,0.0152,0.0153,0.011,0.0108,0.0105,0.0103,0.0102,0,0.049,0.0525,0.0599,0.0637,0.0662,0.0727,0.0784,0.0846,0.0917,0.1015,0.1069,0.1053,0.1054,0.0832,0.0569,0.0337,0.036,0.0128,0.0066,0.0167,0.0131,0.0135,0.0139,0.0019,0.0017,0.0015,0.0014,0,0.0534,0.0553,0.0607,0.0675,0.0734,0.0814,0.0894,0.0963,0.1052,0.1148,0.1252,0.1259,0.1034,0.0787,0.0452,0.0288,0.0163,0.0078,0.0212,0.0082,0.0075,0.0041,0.0049,-0.0002,-0.0001,0.0,0.0001,0.0002,0.0565,0.0599,0.0656,0.0721,0.0794,0.0888,0.0954,0.1076,0.1214,0.1327,0.1326,0.1314,0.1018,0.0565,0.0312,0.0035,0.0029,-0.01,-0.0091,-0.0081,-0.0083,-0.0094,-0.0204,-0.0203,-0.0203,-0.0203,-0.0202,0,0.0597,0.0629,0.0695,0.0777,0.0853,0.0884,0.1023,0.1108,0.1283,0.1359,0.1412,0.112,0.0832,0.0572,0.0097,-0.0202,-0.0191,-0.0238,-0.0174,-0.016,-0.0147,-0.0148,-0.0288,-0.0288,-0.0288,-0.0288,0,0,0.0619,0.067,0.0694,0.0803,0.0859,0.0954,0.103,0.1196,0.1288,0.1363,0.1339,0.1206,0.0873,0.0524,0.0167,-0.0056,-0.0031,-0.0089,-0.001,0.0116,0.0134,-0.0078,-0.0067,0,0,0,0,0]}],[{"header":{"parameterUnit":"m.s-1","parameterCategory":2,"la1":30.2991,"la2":30.254,"lo1":-89.0895,"lo2":-89.0444,"dy":0.0017,"dx":0.0017,"nx":28,"ny":28,"refTime":"2023-07-26T09:00:00:Z","depth":"4","parameterNumber":2,"parameterNumberName":"U-component_of_CURRENTS"},"data":[0,0,0,0,0,0,0,0,0,0,0,0,0,0,0,0,0,0,0,0,0,0,0,0,0,0,0,0,0,0,0,0,0,0,0,0,0,0,0,0,0,0,0,0,0,0,0,0,0,0,0,0,0,0,0,0,0,0,0.0762,0.0763,0,0.0813,0.0813,0.0813,0.0792,0.0792,0.0792,0.0792,0.0803,0.0804,0.0804,0,0,0,0,0,0,0,0,0,0,0,0,0,0.0591,0.0594,0.0762,0.0763,0.0765,0.0813,0.0813,0.0812,0.0792,0.0792,0.0792,0.0792,0.0803,0.0803,0.0804,0,0,0,0,0,0,0,0,0,0,0,0,0,0.0646,0.0594,0.0761,0.0769,0.0771,0.0813,0.0813,0.0812,0.0792,0.0792,0.0792,0.0792,0.0803,0.0803,0.0804,0.0814,0,0,0.0806,0.0807,0,0,0,0,0,0,0,0,0.0643,0.065,0.0766,0.0769,0.0771,0.0806,0.0757,0.0815,0.0792,0.0773,0.0792,0.0791,0.0808,0.0808,0.0803,0.0815,0.0815,0.0806,0.0807,0.0807,0.0807,0,0,0,0,0,0,0,0.0639,0.0648,0.0771,0.0768,0.0771,0.0752,0.0758,0.0767,0.0782,0.0774,0.0776,0.0799,0.0807,0.0802,0.0803,0.0815,0.0806,0.0807,0.0807,0.0808,0.0889,0.0891,0,0,0,0,0,0,0.0659,0.0645,0.0769,0.0774,0.0717,0.0756,0.0763,0.0786,0.0783,0.0785,0.0799,0.0798,0.0801,0.0802,0.0804,0.0896,0.0807,0.0808,0.0808,0.0888,0.089,0.0892,0,0,0,0,0,0,0.0655,0.0669,0.0768,0.0719,0.0731,0.0761,0.0786,0.0787,0.0806,0.0804,0.0804,0.082,0.0801,0.0803,0.0804,0.0893,0.0808,0.0809,0.0886,0.0888,0.0891,0.1028,0,0,0,0,0,0,0.0649,0.0667,0.0693,0.072,0.0735,0.0798,0.0787,0.0789,0.0825,0.0823,0.0822,0.0821,0.0801,0.0803,0.0805,0.0892,0.0809,0.0883,0.0887,0.089,0.1022,0.1035,0.1047,0,0,0,0,0,0.0643,0.0672,0.0693,0.0709,0.0769,0.08,0.0804,0.0816,0.0826,0.083,0.0819,0.0822,0.0827,0.0804,0.0806,0.0896,0.0882,0.0886,0.089,0.1016,0.1033,0.1047,0,0,0,0,0,0,0.0605,0.0675,0.0698,0.0747,0.078,0.0801,0.0822,0.0835,0.0832,0.0845,0.0823,0.0821,0.0867,0.0846,0.0821,0.0926,0.0865,0.0869,0.0961,0.0976,0.0989,0.0995,0.081,0,0,0,0,0,0.0616,0.0658,0.0713,0.0751,0.0778,0.0807,0.0828,0.0847,0.0855,0.0855,0.0858,0.0866,0.0883,0.0896,0.09,0.0944,0.0905,0.1008,0.102,0.1032,0.1036,0.1043,0.1057,0.0905,0.0905,0.0904,0,0,0.0595,0.066,0.067,0.0747,0.0777,0.0812,0.0815,0.0867,0.09,0.0859,0.0898,0.091,0.09,0.0951,0.0974,0.0947,0.105,0.1037,0.1047,0.1044,0.1048,0.1063,0.1076,0.0907,0.0907,0.0906,0,0,0.0585,0.0655,0.0679,0.0729,0.0814,0.0837,0.0861,0.0911,0.0938,0.0982,0.0971,0.1006,0.104,0.1044,0.1052,0.1131,0.1115,0.1172,0.1252,0.126,0.1273,0.1283,0.1237,0.1242,0.1184,0.1184,0.1184,0,0.0559,0.0631,0.0685,0.0744,0.0807,0.0852,0.0902,0.0928,0.097,0.1006,0.1013,0.1087,0.108,0.114,0.1179,0.1165,0.1154,0.12,0.1278,0.1288,0.1297,0.1246,0.1251,0.1191,0.119,0.119,0.1189,0,0.0579,0.0645,0.0676,0.0768,0.0824,0.0889,0.0957,0.1006,0.1069,0.11,0.1196,0.1199,0.1255,0.1275,0.1258,0.1344,0.131,0.1292,0.1243,0.1321,0.1261,0.1264,0.1201,0.1199,0.1197,0.1195,0,0,0.0512,0.0654,0.0672,0.0723,0.0873,0.0901,0.0997,0.108,0.1145,0.1212,0.1298,0.1355,0.1405,0.1415,0.1429,0.1434,0.1482,0.1417,0.1414,0.1375,0.1484,0.1364,0.1353,0.1506,0.1507,0.1509,0.1412,0,0.0521,0.0614,0.071,0.0792,0.0848,0.0964,0.1045,0.113,0.1223,0.1302,0.1358,0.1443,0.1449,0.1523,0.1539,0.1502,0.1499,0.1508,0.1409,0.1404,0.1294,0.1356,0.1514,0.1413,0.1413,0.1414,0.1414,0,0.0541,0.0607,0.0704,0.0835,0.0875,0.0941,0.1113,0.1189,0.1318,0.141,0.1527,0.1577,0.1644,0.1631,0.1622,0.1646,0.1592,0.1533,0.1527,0.1369,0.1289,0.1321,0.1416,0.1416,0.1416,0.1416,0.1416,0,0.0495,0.061,0.0694,0.0749,0.0896,0.098,0.1066,0.1225,0.1317,0.1493,0.1574,0.168,0.1735,0.172,0.1621,0.167,0.153,0.1572,0.139,0.1378,0.1453,0.1442,0.1543,0.1543,0.1544,0.1544,0.1544,0,0.0516,0.0571,0.0672,0.0727,0.083,0.0952,0.1108,0.1219,0.1389,0.1479,0.1633,0.1688,0.177,0.1703,0.1634,0.1485,0.1546,0.1405,0.136,0.1508,0.1505,0.1452,0.1443,0.154,0.1541,0.1542,0.1542,0,0.049,0.0563,0.0644,0.0778,0.0829,0.0909,0.112,0.121,0.1385,0.1512,0.158,0.1702,0.167,0.162,0.1542,0.1473,0.1342,0.1248,0.1346,0.1305,0.1199,0.1198,0.1147,0.1142,0.1138,0.1135,0.1132,0,0.0481,0.0535,0.0665,0.071,0.079,0.0923,0.103,0.1221,0.1319,0.147,0.1494,0.1534,0.1588,0.1354,0.1334,0.1194,0.1157,0.1097,0.1247,0.1205,0.1165,0.1171,0.1175,0.1126,0.1125,0.1124,0.1123,0,0.0465,0.0536,0.0595,0.0695,0.0792,0.0904,0.1047,0.1097,0.129,0.1424,0.1434,0.1419,0.1345,0.13,0.1159,0.1051,0.1173,0.1057,0.1069,0.121,0.1178,0.1144,0.1153,0.1109,0.1111,0.1112,0.1113,0,0.0436,0.0469,0.0554,0.0642,0.0767,0.0845,0.0933,0.1027,0.1139,0.1306,0.1267,0.1267,0.133,0.121,0.105,0.0974,0.1029,0.1032,0.1047,0.1062,0.1075,0.1024,0.0873,0,0,0,0,0,0.0397,0.0414,0.0478,0.0557,0.0697,0.0767,0.0926,0.1009,0.1153,0.1148,0.1233,0.1167,0.108,0.1047,0.0955,0.0987,0.099,0.0875,0.0993,0.1032,0.1048,0.1069,0,0,0,0,0,0,0.034,0.04,0.043,0.05,0.0541,0.0672,0.077,0.0859,0.0887,0.1021,0.097,0.1089,0.0992,0.1095,0.092,0.0911,0.0965,0.0884,0.0881,0.1023,0.1037,0.105,0.1077,0,0,0,0,0]},{"header":{"parameterUnit":"m.s-1","parameterCategory":2,"la1":30.2991,"la2":30.254,"lo1":-89.0895,"lo2":-89.0444,"dy":0.0017,"dx":0.0017,"nx":28,"ny":28,"refTime":"2023-07-26T09:00:00:Z","depth":"4","parameterNumber":3,"parameterNumberName":"V-component_of_CURRENTS"},"data":[0,0,0,0,0,0,0,0,0,0,0,0,0,0,0,0,0,0,0,0,0,0,0,0,0,0,0,0,0,0,0,0,0,0,0,0,0,0,0,0,0,0,0,0,0,0,0,0,0,0,0,0,0,0,0,0,0,0,0.0237,0.0237,0,0.0186,0.0185,0.0184,0.0159,0.016,0.016,0.016,0.0024,0.002,0.0016,0,0,0,0,0,0,0,0,0,0,0,0,0,0.0257,0.0256,0.0237,0.0237,0.0237,0.0186,0.0185,0.0184,0.0159,0.016,0.016,0.016,0.0025,0.002,0.0015,0,0,0,0,0,0,0,0,0,0,0,0,0,0.0227,0.0256,0.0237,0.0221,0.022,0.0186,0.0185,0.0183,0.0159,0.016,0.016,0.0161,0.0026,0.0021,0.0015,-0.0033,0,0,-0.0004,-0.0006,0,0,0,0,0,0,0,0,0.0229,0.0226,0.0224,0.0222,0.022,0.0183,0.0142,0.0108,0.0159,0.0178,0.016,0.0161,0.0071,0.0061,0.0046,-0.004,-0.0046,-0.0004,-0.0008,-0.001,-0.0012,0,0,0,0,0,0,0,0.0231,0.0228,0.0213,0.0224,0.0222,0.0197,0.0193,0.0135,0.0117,0.0176,0.0175,0.0175,0.0069,0.0052,0.0043,-0.0048,-0.0004,-0.0009,-0.0013,-0.0015,-0.022,-0.0221,0,0,0,0,0,0,0.0248,0.023,0.0215,0.0212,0.0231,0.0197,0.0192,0.0191,0.012,0.0111,0.0175,0.0175,0.0062,0.005,0.0038,-0.0035,-0.001,-0.0016,-0.0019,-0.0218,-0.022,-0.0222,0,0,0,0,0,0,0.0248,0.0247,0.0217,0.0223,0.0218,0.0196,0.0195,0.019,0.0177,0.0121,0.011,0.0169,0.0062,0.0046,-0.0005,-0.004,-0.0018,-0.0024,-0.0216,-0.0219,-0.0221,-0.0174,0,0,0,0,0,0,0.0249,0.0247,0.0254,0.0224,0.0218,0.0196,0.0194,0.0189,0.0178,0.0177,0.0111,0.0099,0.0061,0.0005,-0.001,-0.0048,-0.0029,-0.0213,-0.0217,-0.022,-0.0173,-0.0174,-0.0176,0,0,0,0,0,0.025,0.0252,0.0254,0.0253,0.0227,0.0196,0.019,0.0174,0.0178,0.0166,0.0132,0.0101,-0.0029,-0.0,-0.0018,-0.0058,-0.0212,-0.0216,-0.022,-0.0172,-0.0174,-0.0176,0,0,0,0,0,0,0.0265,0.025,0.0251,0.025,0.0228,0.0194,0.019,0.0176,0.0141,0.0145,0.0092,0.0077,0.0012,-0.0031,0.0002,-0.0132,-0.0133,-0.0141,-0.0091,-0.0093,-0.0095,-0.0072,-0.0034,0,0,0,0,0,0.0273,0.0272,0.0249,0.025,0.0244,0.0218,0.0207,0.0193,0.0161,0.0147,0.0099,0.004,-0.0023,-0.0057,-0.0118,-0.0182,-0.0214,-0.0227,-0.0228,-0.0229,-0.0226,-0.0301,-0.0308,-0.0236,-0.0236,-0.0236,0,0,0.0279,0.0274,0.0273,0.0254,0.0241,0.022,0.0211,0.0196,0.0173,0.0134,0.0087,0.0037,-0.004,-0.0109,-0.0145,-0.0146,-0.0266,-0.0234,-0.0234,-0.023,-0.0306,-0.0312,-0.0318,-0.0239,-0.0238,-0.0238,0,0,0.0284,0.0288,0.0285,0.027,0.0255,0.023,0.0228,0.019,0.017,0.0123,0.0082,0.0023,-0.0072,-0.0132,-0.0175,-0.0225,-0.0268,-0.026,-0.0251,-0.0324,-0.0329,-0.0335,-0.0368,-0.0376,-0.0263,-0.0263,-0.0263,0,0.0291,0.0293,0.0277,0.027,0.0265,0.0236,0.0225,0.0191,0.0139,0.0116,0.0112,-0.0028,-0.0086,-0.0177,-0.0192,-0.0228,-0.0259,-0.0229,-0.0322,-0.0328,-0.0335,-0.0367,-0.0377,-0.0261,-0.0262,-0.0262,-0.0262,0,0.0295,0.0296,0.0295,0.0277,0.0257,0.025,0.0207,0.0177,0.0151,0.0113,0.0032,-0.0041,-0.0117,-0.0165,-0.019,-0.0279,-0.0281,-0.0307,-0.0305,-0.0338,-0.0371,-0.0382,-0.0259,-0.026,-0.026,-0.0261,0,0,0.0304,0.0299,0.03,0.03,0.027,0.0252,0.0211,0.0162,0.0142,0.007,0.0029,-0.0085,-0.0108,-0.0158,-0.0214,-0.0284,-0.0348,-0.0306,-0.0311,-0.0315,-0.048,-0.0408,-0.0413,-0.0386,-0.0388,-0.039,-0.0477,0,0.0314,0.0318,0.0304,0.0292,0.0288,0.0255,0.0224,0.0174,0.0126,0.0074,-0.0014,-0.0069,-0.0112,-0.0134,-0.0215,-0.032,-0.0379,-0.032,-0.0468,-0.0472,-0.0385,-0.0425,-0.0397,-0.0485,-0.0488,-0.049,-0.0491,0,0.0319,0.0325,0.0334,0.0316,0.0312,0.0303,0.0261,0.0226,0.0145,0.0113,0.004,-0.0019,-0.0127,-0.0149,-0.0335,-0.0293,-0.0373,-0.0454,-0.046,-0.0417,-0.0422,-0.0455,-0.0512,-0.0511,-0.0509,-0.0508,-0.0506,0,0.0342,0.0336,0.0353,0.0352,0.0329,0.033,0.0312,0.0249,0.0237,0.0152,0.0134,-0.0001,-0.005,-0.0196,-0.0338,-0.034,-0.0534,-0.0561,-0.0573,-0.0568,-0.0624,-0.0618,-0.0684,-0.0684,-0.0684,-0.0684,-0.0683,0,0.0355,0.0361,0.038,0.0392,0.0414,0.0378,0.0391,0.0347,0.0309,0.0286,0.0177,0.0121,-0.0065,-0.0192,-0.0332,-0.0474,-0.0527,-0.0572,-0.0594,-0.0601,-0.0592,-0.0631,-0.0623,-0.0687,-0.0686,-0.0686,-0.0685,0,0.0368,0.0382,0.0403,0.0417,0.0432,0.045,0.0475,0.0471,0.0429,0.0395,0.038,0.0221,0.0044,-0.0132,-0.0365,-0.0438,-0.06,-0.0632,-0.0595,-0.0614,-0.0586,-0.0576,-0.0664,-0.0662,-0.0661,-0.0659,-0.0658,0,0.0371,0.0397,0.0445,0.0476,0.0495,0.0534,0.0558,0.0544,0.0537,0.0439,0.0412,0.0261,0.0137,-0.0134,-0.0328,-0.0558,-0.0585,-0.0628,-0.0638,-0.0575,-0.0588,-0.058,-0.0572,-0.0656,-0.0656,-0.0655,-0.0655,0,0.0383,0.0418,0.0439,0.0519,0.0568,0.0611,0.0642,0.065,0.0606,0.0584,0.0452,0.0303,0.0111,-0.012,-0.0267,-0.045,-0.0587,-0.0615,-0.062,-0.063,-0.0567,-0.058,-0.0574,-0.065,-0.0651,-0.0651,-0.0652,0,0.0397,0.0416,0.0467,0.0531,0.0614,0.0651,0.0663,0.0649,0.065,0.0551,0.0503,0.0277,0.016,-0.0066,-0.0235,-0.0367,-0.0412,-0.0432,-0.0448,-0.0455,-0.0364,-0.0252,-0.0259,0,0,0,0,0,0.0402,0.0411,0.0466,0.0516,0.0612,0.066,0.0696,0.0692,0.0665,0.0597,0.0562,0.0378,0.0128,-0.0015,-0.0138,-0.0229,-0.0444,-0.0372,-0.0475,-0.0624,-0.0629,-0.0551,0,0,0,0,0,0,0.0386,0.0434,0.0446,0.0525,0.0568,0.0648,0.0682,0.0652,0.0613,0.0567,0.0421,0.0384,0.0117,0.0196,-0.0136,-0.0181,-0.025,-0.049,-0.0491,-0.062,-0.0626,-0.063,-0.0552,0,0,0,0,0]}]]